TimeCDT,TemperatureF,Dew PointF,Humidity,Sea Level PressureIn,VisibilityMPH,Wind Direction,Wind SpeedMPH,Gust SpeedMPH,PrecipitationIn,Events,Conditions,WindDirDegrees,DateUTC
12:15 AM,51.6,50.7,97,30.18,10.0,Calm,Calm,-,N/A,,Clear,0,2013-08-18 05:15:00
12:35 AM,52.5,52.0,98,30.18,10.0,Calm,Calm,-,N/A,,Clear,0,2013-08-18 05:35:00
12:55 AM,52.2,51.8,99,30.17,10.0,Calm,Calm,-,N/A,,Clear,0,2013-08-18 05:55:00
1:15 AM,51.1,50.7,99,30.17,2.5,Calm,Calm,-,N/A,,Clear,0,2013-08-18 06:15:00
1:35 AM,51.1,50.4,97,30.17,10.0,Calm,Calm,-,N/A,,Clear,0,2013-08-18 06:35:00
1:55 AM,50.0,49.5,98,30.17,7.0,Calm,Calm,-,N/A,,Clear,0,2013-08-18 06:55:00
2:15 AM,48.6,48.2,99,30.17,4.0,SSE,3.5,-,N/A,,Clear,160,2013-08-18 07:15:00
2:35 AM,51.6,49.6,93,30.17,10.0,SSE,3.5,-,N/A,,Clear,160,2013-08-18 07:35:00
2:55 AM,52.2,50.4,94,30.17,10.0,Calm,Calm,-,N/A,,Clear,0,2013-08-18 07:55:00
3:15 AM,49.3,48.9,99,30.18,1.0,Calm,Calm,-,N/A,,Mist,0,2013-08-18 08:15:00
3:35 AM,50.0,49.6,99,30.18,5.0,Calm,Calm,-,N/A,,Clear,0,2013-08-18 08:35:00
3:55 AM,48.9,48.9,100,30.18,0.2,Calm,Calm,-,N/A,Fog,Fog,0,2013-08-18 08:55:00
4:15 AM,48.6,48.0,98,30.18,7.0,Calm,Calm,-,N/A,,Clear,0,2013-08-18 09:15:00
4:35 AM,48.0,47.5,98,30.19,7.0,Calm,Calm,-,N/A,,Clear,0,2013-08-18 09:35:00
4:55 AM,46.9,46.6,99,30.19,4.0,Calm,Calm,-,N/A,,Clear,0,2013-08-18 09:55:00
5:15 AM,47.7,47.3,99,30.20,7.0,Calm,Calm,-,N/A,,Clear,0,2013-08-18 10:15:00
5:35 AM,47.7,47.3,99,30.20,7.0,Calm,Calm,-,N/A,,Clear,0,2013-08-18 10:35:00
5:55 AM,47.8,47.5,99,30.20,3.0,Calm,Calm,-,N/A,,Clear,0,2013-08-18 10:55:00
6:15 AM,47.7,47.3,99,30.21,0.2,Calm,Calm,-,N/A,Fog,Fog,0,2013-08-18 11:15:00
6:35 AM,47.8,47.7,99,30.20,0.5,Calm,Calm,-,N/A,Fog,Fog,0,2013-08-18 11:35:00
6:55 AM,49.1,48.7,99,30.20,10.0,Calm,Calm,-,N/A,,Clear,0,2013-08-18 11:55:00
7:15 AM,51.3,50.5,97,30.21,7.0,SSE,3.5,-,N/A,,Clear,160,2013-08-18 12:15:00
7:35 AM,55.2,53.6,94,30.21,10.0,Calm,Calm,-,N/A,,Clear,0,2013-08-18 12:35:00
7:55 AM,57.7,54.9,90,30.21,10.0,Calm,Calm,-,N/A,,Clear,0,2013-08-18 12:55:00
8:15 AM,60.6,55.8,84,30.21,10.0,Calm,Calm,-,N/A,,Clear,0,2013-08-18 13:15:00
8:35 AM,63.7,56.8,78,30.21,10.0,South,3.5,-,N/A,,Clear,190,2013-08-18 13:35:00
8:55 AM,66.0,57.4,74,30.21,10.0,SSW,4.6,-,N/A,,Clear,200,2013-08-18 13:55:00
9:15 AM,67.1,56.8,70,30.21,10.0,WSW,3.5,-,N/A,,Clear,240,2013-08-18 14:15:00
9:35 AM,69.3,57.4,66,30.21,10.0,SW,3.5,-,N/A,,Clear,230,2013-08-18 14:35:00
9:55 AM,71.6,57.0,60,30.21,10.0,SW,4.6,-,N/A,,Clear,220,2013-08-18 14:55:00
10:15 AM,71.4,56.3,59,30.21,10.0,WSW,3.5,-,N/A,,Clear,250,2013-08-18 15:15:00
10:35 AM,72.7,57.0,58,30.21,10.0,WSW,5.8,-,N/A,,Clear,250,2013-08-18 15:35:00
10:55 AM,73.4,55.9,54,30.20,10.0,SW,6.9,-,N/A,,Clear,220,2013-08-18 15:55:00
11:15 AM,75.0,56.5,52,30.19,10.0,SSW,10.4,-,N/A,,Clear,200,2013-08-18 16:15:00
11:35 AM,75.0,55.6,51,30.19,10.0,SW,5.8,-,N/A,,Clear,230,2013-08-18 16:35:00
11:55 AM,75.2,54.3,48,30.18,10.0,SW,9.2,-,N/A,,Scattered Clouds,220,2013-08-18 16:55:00
12:15 PM,76.5,53.6,45,30.17,10.0,SSW,10.4,-,N/A,,Scattered Clouds,210,2013-08-18 17:15:00
12:35 PM,77.0,52.7,43,30.17,10.0,SW,11.5,17.3,N/A,,Clear,230,2013-08-18 17:35:00
12:55 PM,77.2,52.7,42,30.16,10.0,SSW,11.5,18.4,N/A,,Clear,200,2013-08-18 17:55:00
1:15 PM,78.1,52.3,41,30.16,10.0,South,8.1,-,N/A,,Clear,190,2013-08-18 18:15:00
1:35 PM,78.1,51.3,39,30.15,10.0,SSW,9.2,17.3,N/A,,Clear,200,2013-08-18 18:35:00
1:55 PM,78.4,51.6,39,30.14,10.0,South,11.5,21.9,N/A,,Clear,180,2013-08-18 18:55:00
2:15 PM,78.4,52.7,41,30.14,10.0,SSW,11.5,21.9,N/A,,Clear,200,2013-08-18 19:15:00
2:35 PM,79.0,52.7,40,30.13,10.0,South,11.5,17.3,N/A,,Clear,180,2013-08-18 19:35:00
2:55 PM,78.6,52.2,40,30.13,10.0,South,13.8,-,N/A,,Clear,190,2013-08-18 19:55:00
3:15 PM,79.7,51.6,38,30.12,10.0,South,12.7,-,N/A,,Clear,180,2013-08-18 20:15:00
3:35 PM,79.5,51.8,38,30.12,10.0,South,9.2,17.3,N/A,,Clear,190,2013-08-18 20:35:00
3:55 PM,79.2,51.8,38,30.12,10.0,South,11.5,-,N/A,,Clear,190,2013-08-18 20:55:00
4:15 PM,79.3,52.7,39,30.12,10.0,SW,6.9,-,N/A,,Clear,230,2013-08-18 21:15:00
4:35 PM,79.3,52.3,39,30.12,10.0,SW,11.5,17.3,N/A,,Clear,220,2013-08-18 21:35:00
4:55 PM,78.8,52.7,40,30.11,10.0,SW,11.5,16.1,N/A,,Clear,220,2013-08-18 21:55:00
5:15 PM,78.1,53.1,42,30.11,10.0,SSW,11.5,-,N/A,,Clear,200,2013-08-18 22:15:00
5:35 PM,77.4,53.4,43,30.10,10.0,SW,9.2,18.4,N/A,,Clear,220,2013-08-18 22:35:00
5:55 PM,76.6,53.2,44,30.11,10.0,WSW,9.2,-,N/A,,Clear,240,2013-08-18 22:55:00
6:15 PM,76.1,54.5,47,30.11,10.0,SW,6.9,17.3,N/A,,Clear,230,2013-08-18 23:15:00
6:35 PM,75.0,54.5,49,30.10,10.0,SW,10.4,-,N/A,,Clear,230,2013-08-18 23:35:00
6:55 PM,73.8,54.5,51,30.10,10.0,SW,8.1,-,N/A,,Clear,220,2013-08-18 23:55:00
7:15 PM,72.7,55.0,54,30.09,10.0,SW,8.1,-,N/A,,Clear,220,2013-08-19 00:15:00
7:35 PM,71.8,54.7,55,30.08,10.0,SW,5.8,-,N/A,,Clear,220,2013-08-19 00:35:00
7:55 PM,69.4,54.9,60,30.09,10.0,SSW,4.6,-,N/A,,Clear,210,2013-08-19 00:55:00
8:15 PM,67.3,54.9,64,30.09,10.0,SSW,4.6,-,N/A,,Clear,210,2013-08-19 01:15:00
8:35 PM,67.1,54.9,65,30.09,10.0,SW,4.6,-,N/A,,Clear,220,2013-08-19 01:35:00
8:55 PM,65.3,54.9,69,30.09,10.0,SW,4.6,-,N/A,,Clear,220,2013-08-19 01:55:00
9:15 PM,64.8,55.0,71,30.09,10.0,SSW,6.9,-,N/A,,Clear,210,2013-08-19 02:15:00
9:35 PM,65.7,55.2,69,30.09,10.0,SSW,5.8,-,N/A,,Clear,210,2013-08-19 02:35:00
9:55 PM,64.4,55.4,73,30.10,10.0,SW,4.6,-,N/A,,Clear,220,2013-08-19 02:55:00
10:15 PM,62.8,55.4,77,30.09,10.0,SSW,5.8,-,N/A,,Clear,210,2013-08-19 03:15:00
10:35 PM,62.6,55.0,76,30.08,10.0,SSW,4.6,-,N/A,,Clear,210,2013-08-19 03:35:00
10:55 PM,61.9,54.9,78,30.08,10.0,SSW,5.8,-,N/A,,Clear,210,2013-08-19 03:55:00
11:15 PM,61.9,55.0,78,30.08,10.0,SSW,4.6,-,N/A,,Clear,210,2013-08-19 04:15:00
11:35 PM,62.1,55.4,79,30.08,10.0,SSW,6.9,-,N/A,,Clear,200,2013-08-19 04:35:00
11:55 PM,61.7,55.4,80,30.09,10.0,SSW,5.8,-,N/A,,Clear,210,2013-08-19 04:55:00